Inquirer Daily News

Weather

Get conditions and forecasts for any City, State, ZIP code or Country:  
Trenton, NJ
on Wednesday, November 14, 2012

Wednesday
Previous Day Next Day
Daily Summary
 ActualAverageRecord
Temperature
Mean Temperature °F 46°F  
Max Temperature 48°F 55°F 72°F (1993)
Min Temperature 32°F 38°F 16°F (1986)
Degree Days
Heating Degree Days 25 19  
Month to date heating degree days 296 235  
Since 1 July heating degree days 603 632  
Cooling Degree Days 0 0  
Month to date cooling degree days 0 0  
Year to date cooling degree days 1234 965  
Moisture
Dew Point 25°F   
Average Humidity 56    
Maximum Humidity 70    
Minimum Humidity 42    
Precipitation
Precipitation 0.00 in 0.09 in 1.89 in (1972)
Month to date precipitation 0.58 1.45  
Year to date precipitation 32.63 40.88  
Wind
Wind Speed 7 mph   
Max Wind Speed 16 mph   
Max Gust Speed 23 mph   
Visibility 10 miles   
Events     

Key: T is trace of precipitation, MM is missing value
Source: NWS Daily Summary
Time(EST)TemperatureDew PointHumidity Pressure Visibility Wind DirectionWind SpeedGust SpeedPrecipitationEvents Conditions
12:53 AM 35.1°F 26.1°F 70% 30.45 in 10.0 miles North 6.9 mph - N/A   Clear
1:53 AM 35.1°F 25.0°F 67% 30.46 in 10.0 miles North 4.6 mph - N/A   Clear
2:53 AM 35.1°F 25.0°F 67% 30.47 in 10.0 miles North 4.6 mph - N/A   Clear
3:53 AM 34.0°F 25.0°F 70% 30.47 in 10.0 miles North 5.8 mph - N/A   Clear
4:53 AM 34.0°F 24.1°F 67% 30.48 in 10.0 miles North 5.8 mph - N/A   Clear
5:53 AM 33.1°F 24.1°F 70% 30.48 in 10.0 miles North 4.6 mph - N/A   Clear
6:53 AM 33.1°F 24.1°F 70% 30.50 in 10.0 miles North 5.8 mph - N/A   Clear
7:53 AM 36.0°F 25.0°F 64% 30.51 in 10.0 miles North 6.9 mph - N/A   Clear
8:53 AM 39.9°F 26.1°F 58% 30.51 in 10.0 miles NNE 8.1 mph - N/A   Clear
9:53 AM 42.1°F 24.1°F 49% 30.51 in 10.0 miles ENE 12.7 mph 18.4 mph N/A   Clear
10:53 AM 44.1°F 25.0°F 47% 30.50 in 10.0 miles NNE 9.2 mph - N/A   Clear
11:53 AM 46.0°F 25.0°F 44% 30.47 in 10.0 miles ENE 10.4 mph - N/A   Clear
12:53 PM 46.9°F 27.0°F 46% 30.45 in 10.0 miles East 8.1 mph - N/A   Clear
1:53 PM 46.9°F 27.0°F 46% 30.45 in 10.0 miles ENE 4.6 mph - N/A   Clear
2:53 PM 48.0°F 28.9°F 48% 30.44 in 10.0 miles ENE 9.2 mph - N/A   Clear
3:53 PM 46.0°F 28.0°F 50% 30.45 in 10.0 miles ENE 8.1 mph - N/A   Clear
4:53 PM 44.1°F 28.0°F 53% 30.44 in 10.0 miles ENE 4.6 mph - N/A   Clear
5:53 PM 39.9°F 28.0°F 63% 30.45 in 10.0 miles North 3.5 mph - N/A   Clear
6:53 PM 39.0°F 27.0°F 62% 30.46 in 10.0 miles NNE 4.6 mph - N/A   Clear
7:53 PM 39.0°F 24.1°F 55% 30.45 in 10.0 miles ENE 6.9 mph - N/A   Clear
8:53 PM 37.9°F 23.0°F 55% 30.43 in 10.0 miles ENE 6.9 mph - N/A   Clear
9:53 PM 39.0°F 23.0°F 53% 30.43 in 10.0 miles ENE 8.1 mph - N/A   Clear
10:53 PM 36.0°F 23.0°F 59% 30.45 in 10.0 miles NE 4.6 mph - N/A   Clear
11:53 PM 35.1°F 21.9°F 59% 30.45 in 10.0 miles NNE 4.6 mph - N/A   Clear
Astronomy
Sunrise:06:44 AM (EST) Moon Rise:07:30 AM (EST)11/14
Sunset:04:42 PM (EST) Moon Set:05:28 PM (EST)11/14
Moon Phase
Nov. 14 Nov. 20 Nov. 28 Dec. 06 Dec. 13

Copyright © 2014 The Weather Underground, Inc.